Voltar ao catálogo

STARLINK-37539

AtivoComunicaçõesSSO
NORAD 68845·PAYLOAD·🇺🇸 United States

Lançado Apr 26, 2026 de Vandenberg Space Force Base

Loading…

Próximas Passagens (próximas 24 horas)

TLE

AtualizadoSource: CelesTrak SupGP

Época: Sep 14, 2026, 23:10 UTC

1 68845C 26094G   26257.96576389  .00052342  00000+0  16248-2 0  2572
2 68845  97.2837 271.1386 0001572  87.8066  54.9976 15.33412314    15

Acompanhe STARLINK-37539 em tempo real com AllMySat

Download on the App Store